sat.trackr.live / text

‹ back to catalog

STARLINK-36750

NORAD 67695 · 2026-025C

PAYLOAD ACTIVE UNKNOWN

§ Identity

Operator
Country
US
Launch date
2026-02-07
Launch site
AFWTR
Launch vehicle
Mass (kg)
RCS (m²)

Purposes: comms

External: N2YO · Heavens-Above · Gunter

§ Orbital elements

Epoch: 2026-05-25T01:15:53.376768Z

Period
93.90 min
Inclination
97.2836°
Eccentricity
0.0000736
Mean motion
15.33464935 rev/d
Perigee alt
465.0 km
Apogee alt
466.0 km
Semi-major
6,843.6 km
B*
7.7973e-4
RAAN
256.6405°
Arg perigee
269.0124°
Mean anomaly
91.1034°
Rev number
1,771

§ Raw data

STARLINK-367501 67695U 26025C   26145.05270112  .00025197  00000+0  77973-3 0  99932 67695  97.2836 256.6405 0000736 269.0124  91.1034 15.33464935 17715

JSON: /api/v1/satellites/67695 · /tle

For live sub-satellite position, see the globe view (requires WebGL).

§ Visibility from observer

Set your observer location to see the next 7 days of passes ≥ 10°. The values pass through the URL so the page stays shareable.

No JS? Fill the form by hand. The geolocation button needs JavaScript.